TimeCST,TemperatureF,Dew PointF,Humidity,Sea Level PressureIn,VisibilityMPH,Wind Direction,Wind SpeedMPH,Gust SpeedMPH,PrecipitationIn,Events,Conditions,WindDirDegrees,DateUTC
12:15 AM,30.2,23.0,75,30.31,10.0,ESE,3.5,-,N/A,,Clear,120,2012-11-17 06:15:00
12:35 AM,30.2,23.0,75,30.31,10.0,ESE,3.5,-,N/A,,Clear,110,2012-11-17 06:35:00
12:55 AM,30.2,24.8,80,30.30,10.0,ESE,4.6,-,N/A,,Clear,110,2012-11-17 06:55:00
1:15 AM,30.2,24.8,80,30.29,10.0,SE,4.6,-,N/A,,Clear,140,2012-11-17 07:15:00
1:35 AM,30.2,24.8,80,30.30,10.0,ESE,3.5,-,N/A,,Clear,120,2012-11-17 07:35:00
1:55 AM,30.2,24.8,80,30.30,10.0,SE,4.6,-,N/A,,Clear,140,2012-11-17 07:55:00
2:15 AM,30.2,26.6,86,30.30,10.0,SE,4.6,-,N/A,,Clear,140,2012-11-17 08:15:00
2:35 AM,30.2,26.6,86,30.29,10.0,Calm,Calm,-,N/A,,Clear,0,2012-11-17 08:35:00
2:55 AM,30.2,26.6,86,30.28,10.0,SE,3.5,-,N/A,,Clear,130,2012-11-17 08:55:00
3:15 AM,30.2,26.6,86,30.28,10.0,SE,4.6,-,N/A,,Clear,130,2012-11-17 09:15:00
3:35 AM,30.2,26.6,86,30.27,10.0,SE,4.6,-,N/A,,Clear,130,2012-11-17 09:35:00
3:55 AM,32.0,28.4,87,30.27,10.0,SE,3.5,-,N/A,,Clear,130,2012-11-17 09:55:00
4:15 AM,32.0,28.4,87,30.26,10.0,Calm,Calm,-,N/A,,Clear,0,2012-11-17 10:15:00
4:35 AM,30.2,28.4,93,30.26,10.0,SE,3.5,-,N/A,,Clear,140,2012-11-17 10:35:00
4:55 AM,32.0,28.4,87,30.26,10.0,SE,3.5,-,N/A,,Clear,140,2012-11-17 10:55:00
5:15 AM,32.0,30.2,93,30.26,10.0,SE,3.5,-,N/A,,Clear,140,2012-11-17 11:15:00
5:55 AM,33.8,30.2,87,30.25,10.0,SSE,5.8,-,N/A,,Clear,150,2012-11-17 11:55:00
6:15 AM,33.8,30.2,87,30.25,10.0,SSE,9.2,-,N/A,,Clear,160,2012-11-17 12:15:00
6:35 AM,33.8,30.2,87,30.25,10.0,SSE,5.8,-,N/A,,Clear,150,2012-11-17 12:35:00
6:55 AM,33.8,30.2,87,30.25,10.0,SSE,8.1,-,N/A,,Clear,160,2012-11-17 12:55:00
7:15 AM,33.8,30.2,87,30.25,10.0,SSE,6.9,-,N/A,,Clear,160,2012-11-17 13:15:00
7:35 AM,33.8,32.0,93,30.25,10.0,SSE,6.9,-,N/A,,Clear,160,2012-11-17 13:35:00
7:55 AM,35.6,32.0,87,30.25,10.0,SSE,8.1,-,N/A,,Clear,160,2012-11-17 13:55:00
8:15 AM,35.6,32.0,87,30.25,10.0,South,8.1,-,N/A,,Clear,170,2012-11-17 14:15:00
8:35 AM,37.4,32.0,81,30.25,10.0,South,9.2,-,N/A,,Clear,170,2012-11-17 14:35:00
9:15 AM,39.2,32.0,75,30.25,10.0,South,10.4,17.3,N/A,,Clear,180,2012-11-17 15:15:00
9:35 AM,41.0,32.0,70,30.25,10.0,South,10.4,-,N/A,,Clear,180,2012-11-17 15:35:00
9:55 AM,42.8,32.0,66,30.25,10.0,South,13.8,18.4,N/A,,Clear,180,2012-11-17 15:55:00
10:15 AM,42.8,32.0,66,30.26,10.0,South,12.7,17.3,N/A,,Clear,180,2012-11-17 16:15:00
10:35 AM,44.6,33.8,66,30.26,10.0,South,13.8,18.4,N/A,,Clear,180,2012-11-17 16:35:00
11:55 AM,50.0,33.8,54,30.23,10.0,South,11.5,17.3,N/A,,Clear,180,2012-11-17 17:55:00
12:15 PM,50.0,32.0,50,30.23,10.0,South,10.4,-,N/A,,Clear,170,2012-11-17 18:15:00
12:35 PM,51.8,32.0,47,30.22,10.0,South,11.5,-,N/A,,Clear,190,2012-11-17 18:35:00
12:55 PM,51.8,32.0,47,30.22,10.0,South,12.7,-,N/A,,Clear,190,2012-11-17 18:55:00
1:15 PM,53.6,32.0,44,30.21,10.0,South,12.7,18.4,N/A,,Clear,180,2012-11-17 19:15:00
1:55 PM,53.6,32.0,44,30.20,10.0,South,12.7,20.7,N/A,,Clear,190,2012-11-17 19:55:00
2:15 PM,53.6,32.0,44,30.20,10.0,South,16.1,21.9,N/A,,Clear,180,2012-11-17 20:15:00
2:35 PM,53.6,32.0,44,30.20,10.0,South,11.5,17.3,N/A,,Clear,190,2012-11-17 20:35:00
2:55 PM,53.6,32.0,44,30.20,10.0,South,15.0,-,N/A,,Clear,190,2012-11-17 20:55:00
3:15 PM,53.6,32.0,44,30.20,10.0,South,11.5,17.3,N/A,,Clear,170,2012-11-17 21:15:00
3:35 PM,53.6,33.8,47,30.20,10.0,South,12.7,18.4,N/A,,Clear,180,2012-11-17 21:35:00
3:55 PM,51.8,33.8,50,30.20,10.0,South,10.4,19.6,N/A,,Clear,170,2012-11-17 21:55:00
4:15 PM,50.0,33.8,54,30.19,10.0,SSE,9.2,-,N/A,,Clear,150,2012-11-17 22:15:00
4:35 PM,50.0,33.8,54,30.20,10.0,SSE,8.1,-,N/A,,Clear,160,2012-11-17 22:35:00
4:55 PM,50.0,33.8,54,30.20,10.0,South,10.4,-,N/A,,Scattered Clouds,170,2012-11-17 22:55:00
5:15 PM,50.0,33.8,54,30.20,10.0,SSE,8.1,-,N/A,,Mostly Cloudy,160,2012-11-17 23:15:00
5:35 PM,50.0,33.8,54,30.19,10.0,South,10.4,16.1,N/A,,Overcast,170,2012-11-17 23:35:00
5:55 PM,50.0,33.8,54,30.19,10.0,SSE,6.9,-,N/A,,Mostly Cloudy,150,2012-11-17 23:55:00
6:15 PM,50.0,33.8,54,30.19,10.0,SSE,8.1,-,N/A,,Mostly Cloudy,150,2012-11-18 00:15:00
6:35 PM,50.0,33.8,54,30.19,10.0,SSE,8.1,-,N/A,,Overcast,150,2012-11-18 00:35:00
6:55 PM,50.0,33.8,54,30.19,10.0,SSE,9.2,-,N/A,,Overcast,150,2012-11-18 00:55:00
7:15 PM,50.0,33.8,54,30.18,10.0,SSE,9.2,-,N/A,,Overcast,150,2012-11-18 01:15:00
7:35 PM,50.0,33.8,54,30.18,10.0,SSE,9.2,18.4,N/A,,Overcast,160,2012-11-18 01:35:00
7:55 PM,50.0,33.8,54,30.19,10.0,SSE,12.7,-,N/A,,Overcast,160,2012-11-18 01:55:00
8:15 PM,48.2,35.6,62,30.20,10.0,South,9.2,-,N/A,Rain,Light Rain,170,2012-11-18 02:15:00
8:35 PM,48.2,35.6,62,30.20,10.0,South,8.1,-,N/A,,Overcast,180,2012-11-18 02:35:00
8:55 PM,46.4,35.6,66,30.21,10.0,South,11.5,19.6,N/A,Rain,Light Rain,170,2012-11-18 02:55:00
9:15 PM,46.4,35.6,66,30.21,10.0,South,9.2,-,N/A,,Overcast,170,2012-11-18 03:15:00
9:35 PM,44.6,37.4,76,30.21,10.0,SSE,8.1,-,N/A,Rain,Light Rain,150,2012-11-18 03:35:00
9:55 PM,44.6,37.4,76,30.20,7.0,SE,8.1,-,N/A,Rain,Light Rain,140,2012-11-18 03:55:00
10:15 PM,44.6,37.4,76,30.20,10.0,SE,6.9,-,N/A,,Overcast,140,2012-11-18 04:15:00
10:35 PM,46.4,35.6,66,30.19,10.0,SE,9.2,-,N/A,,Overcast,140,2012-11-18 04:35:00
10:55 PM,46.4,35.6,66,30.19,10.0,SSE,9.2,-,N/A,,Overcast,160,2012-11-18 04:55:00
11:15 PM,46.4,35.6,66,30.19,10.0,SSE,11.5,-,N/A,,Overcast,160,2012-11-18 05:15:00
11:35 PM,46.4,33.8,62,30.19,10.0,SSE,12.7,-,N/A,,Overcast,160,2012-11-18 05:35:00
11:55 PM,46.4,33.8,62,30.19,10.0,South,11.5,18.4,N/A,,Overcast,170,2012-11-18 05:55:00